| time (UTC) | temp C | wind direction | speed KPH | gust KPH | rain 1hr cm | rain 24hr cm | rain mn cm | humidity % | barometer mb |
| 20260507025515 | 13 | 70 | 3.2 | 8.0 | 0.00 | 0.00 | 0.00 | 68 | 1017.8 |
| 20260507024510 | 13 | 71 | 3.2 | 8.0 | 0.00 | 0.00 | 0.00 | 68 | 1017.8 |
| 20260507023014 | 13 | 73 | 3.2 | 9.7 | 0.00 | 0.00 | 0.00 | 68 | 1017.7 |
| 20260507021013 | 13 | 74 | 3.2 | 9.7 | 0.00 | 0.00 | 0.00 | 66 | 1017.5 |
| 20260507020006 | 14 | 73 | 3.2 | 9.7 | 0.00 | 0.00 | 0.00 | 65 | 1017.7 |
| 20260507015513 | 14 | 71 | 3.2 | 4.8 | 0.00 | 0.00 | 0.00 | 65 | 1017.8 |
| 20260507014005 | 15 | 73 | 3.2 | 9.7 | 0.00 | 0.00 | 0.00 | 64 | 1017.7 |
| 20260507013513 | 15 | 74 | 1.6 | 9.7 | 0.00 | 0.00 | 0.00 | 63 | 1017.7 |
| 20260507013009 | 15 | 75 | 1.6 | 9.7 | 0.00 | 0.00 | 0.00 | 62 | 1017.6 |
| 20260507012016 | 16 | 72 | 1.6 | 4.8 | 0.00 | 0.00 | 0.00 | 62 | 1017.6 |
| 20260507011511 | 16 | 71 | 1.6 | 4.8 | 0.00 | 0.00 | 0.00 | 61 | 1017.6 |
| 20260507010506 | 16 | 70 | 3.2 | 4.8 | 0.00 | 0.00 | 0.00 | 61 | 1017.6 |
| 20260507010014 | 16 | 72 | 3.2 | 4.8 | 0.00 | 0.00 | 0.00 | 61 | 1017.6 |
| 20260507005511 | 16 | 72 | 3.2 | 9.7 | 0.00 | 0.00 | 0.00 | 60 | 1017.5 |
| 20260507004506 | 16 | 72 | 1.6 | 9.7 | 0.00 | 0.00 | 0.00 | 59 | 1017.4 |
| 20260507004015 | 17 | 72 | 1.6 | 9.7 | 0.00 | 0.00 | 0.00 | 59 | 1017.3 |
| 20260507003010 | 17 | 67 | 1.6 | 4.8 | 0.00 | 0.00 | 0.00 | 60 | 1017.4 |
| 20260507002506 | 17 | 69 | 1.6 | 4.8 | 0.00 | 0.00 | 0.00 | 60 | 1017.4 |
| 20260507001010 | 16 | 70 | 1.6 | 4.8 | 0.00 | 0.00 | 0.00 | 61 | 1017.5 |
| 20260507000507 | 16 | 71 | 1.6 | 4.8 | 0.00 | 0.00 | 0.00 | 61 | 1017.5 |
| 20260506235514 | 16 | 72 | 1.6 | 4.8 | 0.00 | 0.00 | 0.00 | 61 | 1017.5 |
| 20260506235011 | 16 | 68 | 1.6 | 4.8 | 0.00 | 0.00 | 0.00 | 61 | 1017.5 |
| 20260506234006 | 16 | 67 | 1.6 | 4.8 | 0.00 | 0.00 | 0.00 | 61 | 1017.5 |
| 20260506233514 | 16 | 71 | 1.6 | 4.8 | 0.00 | 0.00 | 0.00 | 61 | 1017.5 |
| 20260506233010 | 16 | 72 | 1.6 | 4.8 | 0.00 | 0.00 | 0.00 | 61 | 1017.5 |
| 20260506232006 | 16 | 66 | 1.6 | 4.8 | 0.00 | 0.00 | 0.00 | 62 | 1017.5 |
| 20260506231514 | 16 | 64 | 1.6 | 4.8 | 0.00 | 0.00 | 0.00 | 63 | 1017.5 |
| 20260506230509 | 16 | 71 | 1.6 | 4.8 | 0.00 | 0.00 | 0.00 | 62 | 1017.4 |
| 20260506230006 | 16 | 71 | 1.6 | 4.8 | 0.00 | 0.00 | 0.00 | 62 | 1017.3 |
| 20260506225514 | 16 | 74 | 1.6 | 4.8 | 0.00 | 0.00 | 0.00 | 62 | 1017.4 |
| 20260506224509 | 16 | 71 | 1.6 | 3.2 | 0.00 | 0.00 | 0.00 | 63 | 1017.5 |
| 20260506224004 | 15 | 71 | 1.6 | 3.2 | 0.00 | 0.00 | 0.00 | 63 | 1017.5 |
| 20260506222507 | 15 | 70 | 1.6 | 8.0 | 0.00 | 0.00 | 0.00 | 63 | 1017.6 |
| 20260506221504 | 15 | 71 | 1.6 | 8.0 | 0.00 | 0.00 | 0.00 | 62 | 1017.6 |
| 20260506221012 | 15 | 70 | 1.6 | 4.8 | 0.00 | 0.00 | 0.00 | 62 | 1017.6 |
| 20260506214007 | 15 | 69 | 1.6 | 8.0 | 0.00 | 0.00 | 0.00 | 62 | 1017.6 |
| 20260506213012 | 16 | 69 | 1.6 | 4.8 | 0.00 | 0.00 | 0.00 | 61 | 1017.6 |
| 20260506212008 | 16 | 67 | 1.6 | 8.0 | 0.00 | 0.00 | 0.00 | 61 | 1017.7 |
| 20260506211504 | 16 | 68 | 1.6 | 8.0 | 0.00 | 0.00 | 0.00 | 61 | 1017.7 |
| 20260506210511 | 16 | 69 | 1.6 | 8.0 | 0.00 | 0.00 | 0.00 | 61 | 1017.7 |
| 20260506210007 | 16 | 71 | 1.6 | 8.0 | 0.00 | 0.00 | 0.00 | 61 | 1017.7 |
| 20260506204512 | 16 | 70 | 1.6 | 4.8 | 0.00 | 0.00 | 0.00 | 62 | 1017.5 |
| 20260506204008 | 15 | 68 | 1.6 | 4.8 | 0.00 | 0.00 | 0.00 | 62 | 1017.5 |
| 20260506202512 | 15 | 73 | 1.6 | 4.8 | 0.00 | 0.00 | 0.00 | 62 | 1017.6 |
| 20260506201507 | 15 | 70 | 1.6 | 4.8 | 0.00 | 0.00 | 0.00 | 62 | 1017.5 |
| 20260506201015 | 15 | 62 | 1.6 | 3.2 | 0.00 | 0.00 | 0.00 | 62 | 1017.6 |
| 20260506200512 | 15 | 65 | 1.6 | 3.2 | 0.00 | 0.00 | 0.00 | 62 | 1017.6 |
| 20260506195506 | 15 | 73 | 1.6 | 3.2 | 0.00 | 0.00 | 0.00 | 63 | 1017.7 |
| 20260506195015 | 15 | 67 | 1.6 | 4.8 | 0.00 | 0.00 | 0.00 | 63 | 1017.8 |
| 20260506193507 | 14 | 60 | 1.6 | 4.8 | 0.00 | 0.00 | 0.00 | 63 | 1017.8 |
| 20260506193015 | 13 | 59 | 1.6 | 4.8 | 0.00 | 0.00 | 0.00 | 64 | 1017.8 |
| 20260506192010 | 13 | 57 | 3.2 | 4.8 | 0.00 | 0.00 | 0.00 | 64 | 1017.8 |
| 20260506191507 | 13 | 57 | 3.2 | 4.8 | 0.00 | 0.00 | 0.00 | 64 | 1017.7 |
| 20260506190011 | 13 | 73 | 3.2 | 9.7 | 0.00 | 0.00 | 0.00 | 64 | 1017.6 |
| 20260506185005 | 13 | 64 | 3.2 | 9.7 | 0.00 | 0.00 | 0.00 | 64 | 1017.6 |
| 20260506184010 | 13 | 60 | 3.2 | 9.7 | 0.00 | 0.00 | 0.00 | 64 | 1017.5 |
| 20260506183005 | 13 | 70 | 4.8 | 9.7 | 0.00 | 0.00 | 0.00 | 64 | 1017.5 |
| 20260506182513 | 13 | 76 | 4.8 | 9.7 | 0.00 | 0.00 | 0.00 | 64 | 1017.5 |
| 20260506181004 | 13 | 77 | 3.2 | 9.7 | 0.00 | 0.00 | 0.00 | 64 | 1017.3 |
| 20260506174010 | 12 | 71 | 3.2 | 8.0 | 0.00 | 0.00 | 0.00 | 64 | 1017.3 |
| 20260506173507 | 12 | 77 | 3.2 | 11.3 | 0.00 | 0.00 | 0.00 | 64 | 1017.3 |
| 20260506173014 | 12 | 79 | 3.2 | 11.3 | 0.00 | 0.00 | 0.00 | 64 | 1017.3 |
| 20260506172008 | 12 | 81 | 1.6 | 11.3 | 0.00 | 0.00 | 0.00 | 65 | 1017.3 |
| 20260506171516 | 12 | 81 | 1.6 | 9.7 | 0.00 | 0.00 | 0.00 | 66 | 1016.3 |
| 20260506170505 | 12 | 74 | 1.6 | 8.0 | 0.00 | 0.00 | 0.00 | 68 | 1013.6 |
| 20260506051005 | 13 | 68 | 3.2 | 4.8 | 0.00 | 0.00 | 0.00 | 67 | 1012.6 |
| 20260506050513 | 13 | 68 | 3.2 | 8.0 | 0.00 | 0.00 | 0.00 | 67 | 1012.6 |
| 20260506045004 | 13 | 70 | 3.2 | 8.0 | 0.00 | 0.00 | 0.00 | 67 | 1012.5 |
| 20260506043507 | 13 | 66 | 3.2 | 9.7 | 0.00 | 0.00 | 0.00 | 67 | 1012.4 |
| 20260506043015 | 13 | 65 | 3.2 | 9.7 | 0.00 | 0.00 | 0.00 | 67 | 1012.4 |
| 20260506042010 | 13 | 69 | 3.2 | 9.7 | 0.00 | 0.00 | 0.00 | 67 | 1012.3 |
| 20260506041015 | 13 | 70 | 1.6 | 9.7 | 0.00 | 0.00 | 0.00 | 67 | 1012.2 |
| 20260506035506 | 14 | 58 | 3.2 | 9.7 | 0.00 | 0.00 | 0.00 | 65 | 1012.0 |
| 20260506034514 | 15 | 70 | 3.2 | 9.7 | 0.00 | 0.00 | 0.00 | 65 | 1011.9 |
| 20260506034010 | 15 | 75 | 3.2 | 9.7 | 0.00 | 0.00 | 0.00 | 65 | 1011.9 |
| 20260506032014 | 15 | 63 | 1.6 | 4.8 | 0.00 | 0.00 | 0.00 | 63 | 1012.0 |
| 20260506031508 | 15 | 56 | 3.2 | 8.0 | 0.00 | 0.00 | 0.00 | 62 | 1012.0 |
| 20260506031013 | 15 | 61 | 3.2 | 9.7 | 0.00 | 0.00 | 0.00 | 62 | 1011.9 |
| 20260506030508 | 15 | 69 | 3.2 | 9.7 | 0.00 | 0.00 | 0.00 | 62 | 1011.9 |